Year,Month,Day,Hour,Minute,Value (Times are PST for temperature in C)
2011,07,03,00,00,14.20
2011,07,03,00,01,14.20
2011,07,03,00,02,14.20
2011,07,03,00,03,14.20
2011,07,03,00,04,14.20
2011,07,03,00,05,14.20
2011,07,03,00,06,14.20
2011,07,03,00,07,14.20
2011,07,03,00,08,14.20
2011,07,03,00,09,14.20
2011,07,03,00,10,14.20
2011,07,03,00,11,14.20
2011,07,03,00,12,14.20
2011,07,03,00,13,14.20
2011,07,03,00,14,14.20
2011,07,03,00,15,14.20
2011,07,03,00,16,14.20
2011,07,03,00,17,14.20
2011,07,03,00,18,14.20
2011,07,03,00,19,14.20
2011,07,03,00,20,14.10
2011,07,03,00,21,14.10
2011,07,03,00,22,14.10
2011,07,03,00,23,14.10
2011,07,03,00,24,14.10
2011,07,03,00,25,14.10
2011,07,03,00,26,14.10
2011,07,03,00,27,14.10
2011,07,03,00,28,14.10
2011,07,03,00,29,14.10
2011,07,03,00,30,14.10
2011,07,03,00,31,14.10
2011,07,03,00,32,14.10
2011,07,03,00,33,14.10
2011,07,03,00,34,14.10
2011,07,03,00,35,14.10
2011,07,03,00,36,14.10
2011,07,03,00,37,14.10
2011,07,03,00,38,14.10
2011,07,03,00,39,14.10
2011,07,03,00,40,14.10
2011,07,03,00,41,14.10
2011,07,03,00,42,14.10
2011,07,03,00,43,14.10
2011,07,03,00,44,14.10
2011,07,03,00,45,14.10
2011,07,03,00,46,14.00
2011,07,03,00,47,14.00
2011,07,03,00,48,14.00
2011,07,03,00,49,14.00
2011,07,03,00,50,13.90
2011,07,03,00,51,13.90
2011,07,03,00,52,13.90
2011,07,03,00,53,13.90
2011,07,03,00,54,13.90
2011,07,03,00,55,13.90
2011,07,03,00,56,13.90
2011,07,03,00,57,13.90
2011,07,03,00,58,13.90
2011,07,03,00,59,14.00
2011,07,03,01,00,14.00
2011,07,03,01,01,14.00
2011,07,03,01,02,14.00
2011,07,03,01,03,14.00
2011,07,03,01,04,14.00
2011,07,03,01,05,14.00
2011,07,03,01,06,14.00
2011,07,03,01,07,14.00
2011,07,03,01,08,14.10
2011,07,03,01,09,14.10
2011,07,03,01,10,14.10
2011,07,03,01,11,14.10
2011,07,03,01,12,14.10
2011,07,03,01,13,14.10
2011,07,03,01,14,14.10
2011,07,03,01,15,14.10
2011,07,03,01,16,14.20
2011,07,03,01,17,14.20
2011,07,03,01,18,14.20
2011,07,03,01,19,14.20
2011,07,03,01,20,14.10
2011,07,03,01,21,14.10
2011,07,03,01,22,14.10
2011,07,03,01,23,14.10
2011,07,03,01,24,14.10
2011,07,03,01,25,14.00
2011,07,03,01,26,14.00
2011,07,03,01,27,14.00
2011,07,03,01,28,14.00
2011,07,03,01,29,14.00
2011,07,03,01,30,14.00
2011,07,03,01,31,14.10
2011,07,03,01,32,14.10
2011,07,03,01,33,14.10
2011,07,03,01,34,14.10
2011,07,03,01,35,14.10
2011,07,03,01,36,14.00
2011,07,03,01,37,14.00
2011,07,03,01,38,14.00
2011,07,03,01,39,14.00
2011,07,03,01,40,14.00
2011,07,03,01,41,14.00
2011,07,03,01,42,14.00
2011,07,03,01,43,14.00
2011,07,03,01,44,14.00
2011,07,03,01,45,14.00
2011,07,03,01,46,13.90
2011,07,03,01,47,13.90
2011,07,03,01,48,13.90
2011,07,03,01,49,13.80
2011,07,03,01,50,13.80
2011,07,03,01,51,13.80
2011,07,03,01,52,13.80
2011,07,03,01,53,13.80
2011,07,03,01,54,13.80
2011,07,03,01,55,13.80
2011,07,03,01,56,13.80
2011,07,03,01,57,13.80
2011,07,03,01,58,13.80
2011,07,03,01,59,13.80
2011,07,03,02,00,13.80
2011,07,03,02,01,13.80
2011,07,03,02,02,13.80
2011,07,03,02,03,13.80
2011,07,03,02,04,13.80
2011,07,03,02,05,13.80
2011,07,03,02,06,13.80
2011,07,03,02,07,13.80
2011,07,03,02,08,13.80
2011,07,03,02,09,13.80
2011,07,03,02,10,13.80
2011,07,03,02,11,13.80
2011,07,03,02,12,13.80
2011,07,03,02,13,13.80
2011,07,03,02,14,13.80
2011,07,03,02,15,13.80
2011,07,03,02,16,13.80
2011,07,03,02,17,13.80
2011,07,03,02,18,13.80
2011,07,03,02,19,13.80
2011,07,03,02,20,13.80
2011,07,03,02,21,13.80
2011,07,03,02,22,13.80
2011,07,03,02,23,13.90
2011,07,03,02,24,13.90
2011,07,03,02,25,13.90
2011,07,03,02,26,13.90
2011,07,03,02,27,13.90
2011,07,03,02,28,13.90
2011,07,03,02,29,13.90
2011,07,03,02,30,13.90
2011,07,03,02,31,13.90
2011,07,03,02,32,13.90
2011,07,03,02,33,13.90
2011,07,03,02,34,13.90
2011,07,03,02,35,13.90
2011,07,03,02,36,13.90
2011,07,03,02,37,13.80
2011,07,03,02,38,13.80
2011,07,03,02,39,13.80
2011,07,03,02,40,13.80
2011,07,03,02,41,13.80
2011,07,03,02,42,13.70
2011,07,03,02,43,13.70
2011,07,03,02,44,13.70
2011,07,03,02,45,13.70
2011,07,03,02,46,13.60
2011,07,03,02,47,13.60
2011,07,03,02,48,13.60
2011,07,03,02,49,13.60
2011,07,03,02,50,13.60
2011,07,03,02,51,13.50
2011,07,03,02,52,13.50
2011,07,03,02,53,13.50
2011,07,03,02,54,13.50
2011,07,03,02,55,13.50
2011,07,03,02,56,13.50
2011,07,03,02,57,13.60
2011,07,03,02,58,13.50
2011,07,03,02,59,13.50
2011,07,03,03,00,13.60
2011,07,03,03,01,13.60
2011,07,03,03,02,13.70
2011,07,03,03,03,13.70
2011,07,03,03,04,13.70
2011,07,03,03,05,13.70
2011,07,03,03,06,13.80
2011,07,03,03,07,13.80
2011,07,03,03,08,13.80
2011,07,03,03,09,13.80
2011,07,03,03,10,13.90
2011,07,03,03,11,13.90
2011,07,03,03,12,13.90
2011,07,03,03,13,13.90
2011,07,03,03,14,13.90
2011,07,03,03,15,13.90
2011,07,03,03,16,13.90
2011,07,03,03,17,13.90
2011,07,03,03,18,14.00
2011,07,03,03,19,14.00
2011,07,03,03,20,14.10
2011,07,03,03,21,14.10
2011,07,03,03,22,14.10
2011,07,03,03,23,14.20
2011,07,03,03,24,14.30
2011,07,03,03,25,14.30
2011,07,03,03,26,14.40
2011,07,03,03,27,14.40
2011,07,03,03,28,14.50
2011,07,03,03,29,14.60
2011,07,03,03,30,14.60
2011,07,03,03,31,14.70
2011,07,03,03,32,14.70
2011,07,03,03,33,14.80
2011,07,03,03,34,14.80
2011,07,03,03,35,14.90
2011,07,03,03,36,15.00
2011,07,03,03,37,15.00
2011,07,03,03,38,15.00
2011,07,03,03,39,15.00
2011,07,03,03,40,15.00
2011,07,03,03,41,15.00
2011,07,03,03,42,15.00
2011,07,03,03,43,15.00
2011,07,03,03,44,15.00
2011,07,03,03,45,15.10
2011,07,03,03,46,15.20
2011,07,03,03,47,15.20
2011,07,03,03,48,15.20
2011,07,03,03,49,15.20
2011,07,03,03,50,15.10
2011,07,03,03,51,15.10
2011,07,03,03,52,15.10
2011,07,03,03,53,15.10
2011,07,03,03,54,15.10
2011,07,03,03,55,15.10
2011,07,03,03,56,15.10
2011,07,03,03,57,15.10
2011,07,03,03,58,15.20
2011,07,03,03,59,15.20
2011,07,03,04,00,15.20
2011,07,03,04,01,15.20
2011,07,03,04,02,15.20
2011,07,03,04,03,15.20
2011,07,03,04,04,15.20
2011,07,03,04,05,15.20
2011,07,03,04,06,15.30
2011,07,03,04,07,15.30
2011,07,03,04,08,15.30
2011,07,03,04,09,15.30
2011,07,03,04,10,15.30
2011,07,03,04,11,15.30
2011,07,03,04,12,15.20
2011,07,03,04,13,15.20
2011,07,03,04,14,15.20
2011,07,03,04,15,15.20
2011,07,03,04,16,15.20
2011,07,03,04,17,15.20
2011,07,03,04,18,15.10
2011,07,03,04,19,15.10
2011,07,03,04,20,15.10
2011,07,03,04,21,15.10
2011,07,03,04,22,15.10
2011,07,03,04,23,15.10
2011,07,03,04,24,15.10
2011,07,03,04,25,15.00
2011,07,03,04,26,15.00
2011,07,03,04,27,15.00
2011,07,03,04,28,15.00
2011,07,03,04,29,15.00
2011,07,03,04,30,15.00
2011,07,03,04,31,15.00
2011,07,03,04,32,15.00
2011,07,03,04,33,15.00
2011,07,03,04,34,15.00
2011,07,03,04,35,15.00
2011,07,03,04,36,15.00
2011,07,03,04,37,15.00
2011,07,03,04,38,15.00
2011,07,03,04,39,15.00
2011,07,03,04,40,15.00
2011,07,03,04,41,15.00
2011,07,03,04,42,15.00
2011,07,03,04,43,15.00
2011,07,03,04,44,15.00
2011,07,03,04,45,15.00
2011,07,03,04,46,15.00
2011,07,03,04,47,15.00
2011,07,03,04,48,15.00
2011,07,03,04,49,15.00
2011,07,03,04,50,15.00
2011,07,03,04,51,15.00
2011,07,03,04,52,15.00
2011,07,03,04,53,15.00
2011,07,03,04,54,14.80
2011,07,03,04,55,14.80
2011,07,03,04,56,14.70
2011,07,03,04,57,14.60
2011,07,03,04,58,14.50
2011,07,03,04,59,14.50
2011,07,03,05,00,14.40
2011,07,03,05,01,14.40
2011,07,03,05,02,14.30
2011,07,03,05,03,14.30
2011,07,03,05,04,14.20
2011,07,03,05,05,14.20
2011,07,03,05,06,14.10
2011,07,03,05,07,14.10
2011,07,03,05,08,14.10
2011,07,03,05,09,14.10
2011,07,03,05,10,14.00
2011,07,03,05,11,14.00
2011,07,03,05,12,14.00
2011,07,03,05,13,14.00
2011,07,03,05,14,14.00
2011,07,03,05,15,14.00
2011,07,03,05,16,14.10
2011,07,03,05,17,14.10
2011,07,03,05,18,14.20
2011,07,03,05,19,14.20
2011,07,03,05,20,14.20
2011,07,03,05,21,14.20
2011,07,03,05,22,14.20
2011,07,03,05,23,14.20
2011,07,03,05,24,14.20
2011,07,03,05,25,14.20
2011,07,03,05,26,14.20
2011,07,03,05,27,14.20
2011,07,03,05,28,14.20
2011,07,03,05,29,14.30
2011,07,03,05,30,14.30
2011,07,03,05,31,14.40
2011,07,03,05,32,14.40
2011,07,03,05,33,14.40
2011,07,03,05,34,14.40
2011,07,03,05,35,14.50
2011,07,03,05,36,14.50
2011,07,03,05,37,14.60
2011,07,03,05,38,14.60
2011,07,03,05,39,14.60
2011,07,03,05,40,14.60
2011,07,03,05,41,14.70
2011,07,03,05,42,14.70
2011,07,03,05,43,14.70
2011,07,03,05,44,14.70
2011,07,03,05,45,14.70
2011,07,03,05,46,14.70
2011,07,03,05,47,14.70
2011,07,03,05,48,14.70
2011,07,03,05,49,14.70
2011,07,03,05,50,14.80
2011,07,03,05,51,14.80
2011,07,03,05,52,14.80
2011,07,03,05,53,14.80
2011,07,03,05,54,14.80
2011,07,03,05,55,14.80
2011,07,03,05,56,14.80
2011,07,03,05,57,14.90
2011,07,03,05,58,14.90
2011,07,03,05,59,14.90
2011,07,03,06,00,14.90
2011,07,03,06,01,14.90
2011,07,03,06,02,14.90
2011,07,03,06,03,14.90
2011,07,03,06,04,14.90
2011,07,03,06,05,14.90
2011,07,03,06,06,14.90
2011,07,03,06,07,14.80
2011,07,03,06,08,14.80
2011,07,03,06,09,14.80
2011,07,03,06,10,14.80
2011,07,03,06,11,14.80
2011,07,03,06,12,14.80
2011,07,03,06,13,14.80
2011,07,03,06,14,14.80
2011,07,03,06,15,14.80
2011,07,03,06,16,14.80
2011,07,03,06,17,14.70
2011,07,03,06,18,14.80
2011,07,03,06,19,14.70
2011,07,03,06,20,14.70
2011,07,03,06,21,14.70
2011,07,03,06,22,14.70
2011,07,03,06,23,14.70
2011,07,03,06,24,14.70
2011,07,03,06,25,14.60
2011,07,03,06,26,14.60
2011,07,03,06,27,14.60
2011,07,03,06,28,14.60
2011,07,03,06,29,14.60
2011,07,03,06,30,14.60
2011,07,03,06,31,14.70
2011,07,03,06,32,14.70
2011,07,03,06,33,14.70
2011,07,03,06,34,14.70
2011,07,03,06,35,14.70
2011,07,03,06,36,14.70
2011,07,03,06,37,14.70
2011,07,03,06,38,14.70
2011,07,03,06,39,14.70
2011,07,03,06,40,14.70
2011,07,03,06,41,14.70
2011,07,03,06,42,14.70
2011,07,03,06,43,14.70
2011,07,03,06,44,14.70
2011,07,03,06,45,14.70
2011,07,03,06,46,14.70
2011,07,03,06,47,14.70
2011,07,03,06,48,14.70
2011,07,03,06,49,14.70
2011,07,03,06,50,14.70
2011,07,03,06,51,14.70
2011,07,03,06,52,14.70
2011,07,03,06,53,14.70
2011,07,03,06,54,14.70
2011,07,03,06,55,14.70
2011,07,03,06,56,14.70
2011,07,03,06,57,14.60
2011,07,03,06,58,14.70
2011,07,03,06,59,14.70
2011,07,03,07,00,14.70
2011,07,03,07,01,14.70
2011,07,03,07,02,14.70
2011,07,03,07,03,14.70
2011,07,03,07,04,14.70
2011,07,03,07,05,14.80
2011,07,03,07,06,14.80
2011,07,03,07,07,14.80
2011,07,03,07,08,14.80
2011,07,03,07,09,14.80
2011,07,03,07,10,14.90
2011,07,03,07,11,14.90
2011,07,03,07,12,15.00
2011,07,03,07,13,15.00
2011,07,03,07,14,15.00
2011,07,03,07,15,15.00
2011,07,03,07,16,15.00
2011,07,03,07,17,15.10
2011,07,03,07,18,15.20
2011,07,03,07,19,15.30
2011,07,03,07,20,15.40
2011,07,03,07,21,15.50
2011,07,03,07,22,15.50
2011,07,03,07,23,15.60
2011,07,03,07,24,15.70
2011,07,03,07,25,15.70
2011,07,03,07,26,15.70
2011,07,03,07,27,15.80
2011,07,03,07,28,15.80
2011,07,03,07,29,15.90
2011,07,03,07,30,15.90
2011,07,03,07,31,16.00
2011,07,03,07,32,16.10
2011,07,03,07,33,16.10
2011,07,03,07,34,16.10
2011,07,03,07,35,16.20
2011,07,03,07,36,16.20
2011,07,03,07,37,16.20
2011,07,03,07,38,16.20
2011,07,03,07,39,16.20
2011,07,03,07,40,16.20
2011,07,03,07,41,16.20
2011,07,03,07,42,16.30
2011,07,03,07,43,16.30
2011,07,03,07,44,16.30
2011,07,03,07,45,16.30
2011,07,03,07,46,16.30
2011,07,03,07,47,16.30
2011,07,03,07,48,16.30
2011,07,03,07,49,16.30
2011,07,03,07,50,16.30
2011,07,03,07,51,16.30
2011,07,03,07,52,16.30
2011,07,03,07,53,16.40
2011,07,03,07,54,16.40
2011,07,03,07,55,16.50
2011,07,03,07,56,16.50
2011,07,03,07,57,16.60
2011,07,03,07,58,16.60
2011,07,03,07,59,16.70
2011,07,03,08,00,16.80
2011,07,03,08,01,16.80
2011,07,03,08,02,16.90
2011,07,03,08,03,16.90
2011,07,03,08,04,17.00
2011,07,03,08,05,17.00
2011,07,03,08,06,17.00
2011,07,03,08,07,17.00
2011,07,03,08,08,17.00
2011,07,03,08,09,17.00
2011,07,03,08,10,17.10
2011,07,03,08,11,17.10
2011,07,03,08,12,17.10
2011,07,03,08,13,17.10
2011,07,03,08,14,17.10
2011,07,03,08,15,17.20
2011,07,03,08,16,17.20
2011,07,03,08,17,17.30
2011,07,03,08,18,17.30
2011,07,03,08,19,17.40
2011,07,03,08,20,17.50
2011,07,03,08,21,17.60
2011,07,03,08,22,17.60
2011,07,03,08,23,17.60
2011,07,03,08,24,17.60
2011,07,03,08,25,17.60
2011,07,03,08,26,17.50
2011,07,03,08,27,17.50
2011,07,03,08,28,17.50
2011,07,03,08,29,17.50
2011,07,03,08,30,17.50
2011,07,03,08,31,17.50
2011,07,03,08,32,17.40
2011,07,03,08,33,17.30
2011,07,03,08,34,17.30
2011,07,03,08,35,17.30
2011,07,03,08,36,17.30
2011,07,03,08,37,17.30
2011,07,03,08,38,17.30
2011,07,03,08,39,17.30
2011,07,03,08,40,17.40
2011,07,03,08,41,17.40
2011,07,03,08,42,17.40
2011,07,03,08,43,17.40
2011,07,03,08,44,17.40
2011,07,03,08,45,17.40
2011,07,03,08,46,17.50
2011,07,03,08,47,17.60
2011,07,03,08,48,17.60
2011,07,03,08,49,17.70
2011,07,03,08,50,17.80
2011,07,03,08,51,17.90
2011,07,03,08,52,18.00
2011,07,03,08,53,18.00
2011,07,03,08,54,18.10
2011,07,03,08,55,18.10
2011,07,03,08,56,18.10
2011,07,03,08,57,18.10
2011,07,03,08,58,18.10
2011,07,03,08,59,18.20
2011,07,03,09,00,18.30
2011,07,03,09,01,18.40
2011,07,03,09,02,18.50
2011,07,03,09,03,18.60
2011,07,03,09,04,18.70
2011,07,03,09,05,18.80
2011,07,03,09,06,18.90
2011,07,03,09,07,18.90
2011,07,03,09,08,18.90
2011,07,03,09,09,18.90
2011,07,03,09,10,18.90
2011,07,03,09,11,18.80
2011,07,03,09,12,18.70
2011,07,03,09,13,18.60
2011,07,03,09,14,18.50
2011,07,03,09,15,18.50
2011,07,03,09,16,18.40
2011,07,03,09,17,18.40
2011,07,03,09,18,18.40
2011,07,03,09,19,18.50
2011,07,03,09,20,18.50
2011,07,03,09,21,18.50
2011,07,03,09,22,18.40
2011,07,03,09,23,18.40
2011,07,03,09,24,18.40
2011,07,03,09,25,18.30
2011,07,03,09,26,18.30
2011,07,03,09,27,18.20
2011,07,03,09,28,18.20
2011,07,03,09,29,18.20
2011,07,03,09,30,18.10
2011,07,03,09,31,18.20
2011,07,03,09,32,18.10
2011,07,03,09,33,18.20
2011,07,03,09,34,18.20
2011,07,03,09,35,18.20
2011,07,03,09,36,18.20
2011,07,03,09,37,18.30
2011,07,03,09,38,18.20
2011,07,03,09,39,18.30
2011,07,03,09,40,18.30
2011,07,03,09,41,18.30
2011,07,03,09,42,18.40
2011,07,03,09,43,18.40
2011,07,03,09,44,18.40
2011,07,03,09,45,18.40
2011,07,03,09,46,18.50
2011,07,03,09,47,18.60
2011,07,03,09,48,18.60
2011,07,03,09,49,18.70
2011,07,03,09,50,18.80
2011,07,03,09,51,18.80
2011,07,03,09,52,18.90
2011,07,03,09,53,19.00
2011,07,03,09,54,19.00
2011,07,03,09,55,19.10
2011,07,03,09,56,19.10
2011,07,03,09,57,19.20
2011,07,03,09,58,19.20
2011,07,03,09,59,19.20
2011,07,03,10,00,19.10
2011,07,03,10,01,19.00
2011,07,03,10,02,18.70
2011,07,03,10,03,18.50
2011,07,03,10,04,18.50
2011,07,03,10,05,18.40
2011,07,03,10,06,18.40
2011,07,03,10,07,18.50
2011,07,03,10,08,18.50
2011,07,03,10,09,18.60
2011,07,03,10,10,18.70
2011,07,03,10,11,18.80
2011,07,03,10,12,18.80
2011,07,03,10,13,18.80
2011,07,03,10,14,18.60
2011,07,03,10,15,18.60
2011,07,03,10,16,18.50
2011,07,03,10,17,18.50
2011,07,03,10,18,18.50
2011,07,03,10,19,18.60
2011,07,03,10,20,18.70
2011,07,03,10,21,18.70
2011,07,03,10,22,18.70
2011,07,03,10,23,18.60
2011,07,03,10,24,18.60
2011,07,03,10,25,18.70
2011,07,03,10,26,18.70
2011,07,03,10,27,18.80
2011,07,03,10,28,18.80
2011,07,03,10,29,18.90
2011,07,03,10,30,18.80
2011,07,03,10,31,18.80
2011,07,03,10,32,18.70
2011,07,03,10,33,18.70
2011,07,03,10,34,18.80
2011,07,03,10,35,18.80
2011,07,03,10,36,18.80
2011,07,03,10,37,18.90
2011,07,03,10,38,18.90
2011,07,03,10,39,18.90
2011,07,03,10,40,18.90
2011,07,03,10,41,18.90
2011,07,03,10,42,18.90
2011,07,03,10,43,19.00
2011,07,03,10,44,19.00
2011,07,03,10,45,19.00
2011,07,03,10,46,19.10
2011,07,03,10,47,19.10
2011,07,03,10,48,19.10
2011,07,03,10,49,19.10
2011,07,03,10,50,19.20
2011,07,03,10,51,19.20
2011,07,03,10,52,19.30
2011,07,03,10,53,19.40
2011,07,03,10,54,19.60
2011,07,03,10,55,19.70
2011,07,03,10,56,19.70
2011,07,03,10,57,19.80
2011,07,03,10,58,19.70
2011,07,03,10,59,19.50
2011,07,03,11,00,19.40
2011,07,03,11,01,19.10
2011,07,03,11,02,18.80
2011,07,03,11,03,18.50
2011,07,03,11,04,18.20
2011,07,03,11,05,18.10
2011,07,03,11,06,18.00
2011,07,03,11,07,17.80
2011,07,03,11,08,17.70
2011,07,03,11,09,17.60
2011,07,03,11,10,17.40
2011,07,03,11,11,17.40
2011,07,03,11,12,17.40
2011,07,03,11,13,17.50
2011,07,03,11,14,17.50
2011,07,03,11,15,17.40
2011,07,03,11,16,17.40
2011,07,03,11,17,17.40
2011,07,03,11,18,17.40
2011,07,03,11,19,17.40
2011,07,03,11,20,17.30
2011,07,03,11,21,17.30
2011,07,03,11,22,17.40
2011,07,03,11,23,17.40
2011,07,03,11,24,17.50
2011,07,03,11,25,17.50
2011,07,03,11,26,17.40
2011,07,03,11,27,17.40
2011,07,03,11,28,17.50
2011,07,03,11,29,17.60
2011,07,03,11,30,17.60
2011,07,03,11,31,17.60
2011,07,03,11,32,17.70
2011,07,03,11,33,17.80
2011,07,03,11,34,17.80
2011,07,03,11,35,17.90
2011,07,03,11,36,17.90
2011,07,03,11,37,17.90
2011,07,03,11,38,17.90
2011,07,03,11,39,17.80
2011,07,03,11,40,17.70
2011,07,03,11,41,17.60
2011,07,03,11,42,17.60
2011,07,03,11,43,17.60
2011,07,03,11,44,17.60
2011,07,03,11,45,17.60
2011,07,03,11,46,17.60
2011,07,03,11,47,17.60
2011,07,03,11,48,17.60
2011,07,03,11,49,17.50
2011,07,03,11,50,17.50
2011,07,03,11,51,17.50
2011,07,03,11,52,17.60
2011,07,03,11,53,17.60
2011,07,03,11,54,17.60
2011,07,03,11,55,17.60
2011,07,03,11,56,17.60
2011,07,03,11,57,17.70
2011,07,03,11,58,17.80
2011,07,03,11,59,17.80
2011,07,03,12,00,17.80
2011,07,03,12,01,17.90
2011,07,03,12,02,18.00
2011,07,03,12,03,18.10
2011,07,03,12,04,18.20
2011,07,03,12,05,18.30
2011,07,03,12,06,18.30
2011,07,03,12,07,18.30
2011,07,03,12,08,18.30
2011,07,03,12,09,18.30
2011,07,03,12,10,18.30
2011,07,03,12,11,18.40
2011,07,03,12,12,18.40
2011,07,03,12,13,18.30
2011,07,03,12,14,18.20
2011,07,03,12,15,18.20
2011,07,03,12,16,18.20
2011,07,03,12,17,18.20
2011,07,03,12,18,18.20
2011,07,03,12,19,18.30
2011,07,03,12,20,18.40
2011,07,03,12,21,18.40
2011,07,03,12,22,18.40
2011,07,03,12,23,18.30
2011,07,03,12,24,18.30
2011,07,03,12,25,18.30
2011,07,03,12,26,18.30
2011,07,03,12,27,18.20
2011,07,03,12,28,18.20
2011,07,03,12,29,18.10
2011,07,03,12,30,18.20
2011,07,03,12,31,18.20
2011,07,03,12,32,18.30
2011,07,03,12,33,18.30
2011,07,03,12,34,18.20
2011,07,03,12,35,18.20
2011,07,03,12,36,18.20
2011,07,03,12,37,18.20
2011,07,03,12,38,18.20
2011,07,03,12,39,18.30
2011,07,03,12,40,18.30
2011,07,03,12,41,18.40
2011,07,03,12,42,18.60
2011,07,03,12,43,18.80
2011,07,03,12,44,18.90
2011,07,03,12,45,19.00
2011,07,03,12,46,19.00
2011,07,03,12,47,18.90
2011,07,03,12,48,18.90
2011,07,03,12,49,18.90
2011,07,03,12,50,18.70
2011,07,03,12,51,18.60
2011,07,03,12,52,18.60
2011,07,03,12,53,18.60
2011,07,03,12,54,18.70
2011,07,03,12,55,18.70
2011,07,03,12,56,18.70
2011,07,03,12,57,18.60
2011,07,03,12,58,18.60
2011,07,03,12,59,18.60
2011,07,03,13,00,18.60
2011,07,03,13,01,18.70
2011,07,03,13,02,18.70
2011,07,03,13,03,18.60
2011,07,03,13,04,18.50
2011,07,03,13,05,18.40
2011,07,03,13,06,18.30
2011,07,03,13,07,18.30
2011,07,03,13,08,18.40
2011,07,03,13,09,18.40
2011,07,03,13,10,18.50
2011,07,03,13,11,18.50
2011,07,03,13,12,18.60
2011,07,03,13,13,18.60
2011,07,03,13,14,18.50
2011,07,03,13,15,18.40
2011,07,03,13,16,18.30
2011,07,03,13,17,18.30
2011,07,03,13,18,18.30
2011,07,03,13,19,18.30
2011,07,03,13,20,18.30
2011,07,03,13,21,18.20
2011,07,03,13,22,18.20
2011,07,03,13,23,18.30
2011,07,03,13,24,18.30
2011,07,03,13,25,18.40
2011,07,03,13,26,18.50
2011,07,03,13,27,18.60
2011,07,03,13,28,18.60
2011,07,03,13,29,18.60
2011,07,03,13,30,18.60
2011,07,03,13,31,18.60
2011,07,03,13,32,18.70
2011,07,03,13,33,18.80
2011,07,03,13,34,18.80
2011,07,03,13,35,18.80
2011,07,03,13,36,18.80
2011,07,03,13,37,18.80
2011,07,03,13,38,18.70
2011,07,03,13,39,18.60
2011,07,03,13,40,18.60
2011,07,03,13,41,18.60
2011,07,03,13,42,18.50
2011,07,03,13,43,18.50
2011,07,03,13,44,18.50
2011,07,03,13,45,18.40
2011,07,03,13,46,18.30
2011,07,03,13,47,18.20
2011,07,03,13,48,18.20
2011,07,03,13,49,18.30
2011,07,03,13,50,18.30
2011,07,03,13,51,18.40
2011,07,03,13,52,18.40
2011,07,03,13,53,18.40
2011,07,03,13,54,18.40
2011,07,03,13,55,18.40
2011,07,03,13,56,18.30
2011,07,03,13,57,18.20
2011,07,03,13,58,18.30
2011,07,03,13,59,18.30
2011,07,03,14,00,18.30
2011,07,03,14,01,18.30
2011,07,03,14,02,18.30
2011,07,03,14,03,18.20
2011,07,03,14,04,18.20
2011,07,03,14,05,18.20
2011,07,03,14,06,18.20
2011,07,03,14,07,18.20
2011,07,03,14,08,18.20
2011,07,03,14,09,18.20
2011,07,03,14,10,18.20
2011,07,03,14,11,18.30
2011,07,03,14,12,18.30
2011,07,03,14,13,18.30
2011,07,03,14,14,18.20
2011,07,03,14,15,18.20
2011,07,03,14,16,18.30
2011,07,03,14,17,18.40
2011,07,03,14,18,18.50
2011,07,03,14,19,18.60
2011,07,03,14,20,18.50
2011,07,03,14,21,18.40
2011,07,03,14,22,18.40
2011,07,03,14,23,18.40
2011,07,03,14,24,18.40
2011,07,03,14,25,18.50
2011,07,03,14,26,18.40
2011,07,03,14,27,18.40
2011,07,03,14,28,18.40
2011,07,03,14,29,18.30
2011,07,03,14,30,18.30
2011,07,03,14,31,18.30
2011,07,03,14,32,18.30
2011,07,03,14,33,18.30
2011,07,03,14,34,18.40
2011,07,03,14,35,18.40
2011,07,03,14,36,18.30
2011,07,03,14,37,18.20
2011,07,03,14,38,18.20
2011,07,03,14,39,18.10
2011,07,03,14,40,18.10
2011,07,03,14,41,18.00
2011,07,03,14,42,18.10
2011,07,03,14,43,18.10
2011,07,03,14,44,18.10
2011,07,03,14,45,18.00
2011,07,03,14,46,18.10
2011,07,03,14,47,18.10
2011,07,03,14,48,18.00
2011,07,03,14,49,18.00
2011,07,03,14,50,18.10
2011,07,03,14,51,18.10
2011,07,03,14,52,18.20
2011,07,03,14,53,18.20
2011,07,03,14,54,18.30
2011,07,03,14,55,18.40
2011,07,03,14,56,18.40
2011,07,03,14,57,18.30
2011,07,03,14,58,18.30
2011,07,03,14,59,18.30
2011,07,03,15,00,18.30
2011,07,03,15,01,18.30
2011,07,03,15,02,18.20
2011,07,03,15,03,18.20
2011,07,03,15,04,18.10
2011,07,03,15,05,18.10
2011,07,03,15,06,18.20
2011,07,03,15,07,18.20
2011,07,03,15,08,18.30
2011,07,03,15,09,18.20
2011,07,03,15,10,18.20
2011,07,03,15,11,18.20
2011,07,03,15,12,18.20
2011,07,03,15,13,18.20
2011,07,03,15,14,18.30
2011,07,03,15,15,18.30
2011,07,03,15,16,18.30
2011,07,03,15,17,18.40
2011,07,03,15,18,18.40
2011,07,03,15,19,18.40
2011,07,03,15,20,18.30
2011,07,03,15,21,18.40
2011,07,03,15,22,18.40
2011,07,03,15,23,18.60
2011,07,03,15,24,18.70
2011,07,03,15,25,18.80
2011,07,03,15,26,18.90
2011,07,03,15,27,18.90
2011,07,03,15,28,18.90
2011,07,03,15,29,18.90
2011,07,03,15,30,18.80
2011,07,03,15,31,18.70
2011,07,03,15,32,18.60
2011,07,03,15,33,18.50
2011,07,03,15,34,18.40
2011,07,03,15,35,18.40
2011,07,03,15,36,18.50
2011,07,03,15,37,18.60
2011,07,03,15,38,18.70
2011,07,03,15,39,18.70
2011,07,03,15,40,18.80
2011,07,03,15,41,18.80
2011,07,03,15,42,18.80
2011,07,03,15,43,18.70
2011,07,03,15,44,18.80
2011,07,03,15,45,18.90
2011,07,03,15,46,18.90
2011,07,03,15,47,18.90
2011,07,03,15,48,18.90
2011,07,03,15,49,18.80
2011,07,03,15,50,18.80
2011,07,03,15,51,18.80
2011,07,03,15,52,18.80
2011,07,03,15,53,18.80
2011,07,03,15,54,18.80
2011,07,03,15,55,18.70
2011,07,03,15,56,18.60
2011,07,03,15,57,18.70
2011,07,03,15,58,18.70
2011,07,03,15,59,18.70
2011,07,03,16,00,18.70
2011,07,03,16,01,18.70
2011,07,03,16,02,18.70
2011,07,03,16,03,18.70
2011,07,03,16,04,18.70
2011,07,03,16,05,18.70
2011,07,03,16,06,18.70
2011,07,03,16,07,18.70
2011,07,03,16,08,18.70
2011,07,03,16,09,18.70
2011,07,03,16,10,18.60
2011,07,03,16,11,18.50
2011,07,03,16,12,18.50
2011,07,03,16,13,18.40
2011,07,03,16,14,18.40
2011,07,03,16,15,18.40
2011,07,03,16,16,18.50
2011,07,03,16,17,18.50
2011,07,03,16,18,18.60
2011,07,03,16,19,18.60
2011,07,03,16,20,18.60
2011,07,03,16,21,18.60
2011,07,03,16,22,18.60
2011,07,03,16,23,18.70
2011,07,03,16,24,18.70
2011,07,03,16,25,18.70
2011,07,03,16,26,18.80
2011,07,03,16,27,18.90
2011,07,03,16,28,19.00
2011,07,03,16,29,19.10
2011,07,03,16,30,19.20
2011,07,03,16,31,19.30
2011,07,03,16,32,19.30
2011,07,03,16,33,19.30
2011,07,03,16,34,19.30
2011,07,03,16,35,19.20
2011,07,03,16,36,19.20
2011,07,03,16,37,19.30
2011,07,03,16,38,19.30
2011,07,03,16,39,19.30
2011,07,03,16,40,19.30
2011,07,03,16,41,19.20
2011,07,03,16,42,19.10
2011,07,03,16,43,19.10
2011,07,03,16,44,19.00
2011,07,03,16,45,19.00
2011,07,03,16,46,19.00
2011,07,03,16,47,18.90
2011,07,03,16,48,18.80
2011,07,03,16,49,18.70
2011,07,03,16,50,18.70
2011,07,03,16,51,18.70
2011,07,03,16,52,18.70
2011,07,03,16,53,18.60
2011,07,03,16,54,18.70
2011,07,03,16,55,18.70
2011,07,03,16,56,18.60
2011,07,03,16,57,18.60
2011,07,03,16,58,18.60
2011,07,03,16,59,18.70
2011,07,03,17,00,18.70
2011,07,03,17,01,18.80
2011,07,03,17,02,18.90
2011,07,03,17,03,18.90
2011,07,03,17,04,18.90
2011,07,03,17,05,18.90
2011,07,03,17,06,18.90
2011,07,03,17,07,18.90
2011,07,03,17,08,18.90
2011,07,03,17,09,19.00
2011,07,03,17,10,19.00
2011,07,03,17,11,19.10
2011,07,03,17,12,19.10
2011,07,03,17,13,19.20
2011,07,03,17,14,19.20
2011,07,03,17,15,19.20
2011,07,03,17,16,19.20
2011,07,03,17,17,19.20
2011,07,03,17,18,19.20
2011,07,03,17,19,19.30